Location: ???????
(55.3754°N, 39.3545°E)
Time: 07:48:04
(UTC+00:00)

Cosmos 292 Rocket - Pass Details

Date: 14 April 2026
Orbit: 661 x 682 km, 74.0° (Epoch: 9 May)

Event Time Altitude Azimuth Distance (km) Brightness Sun altitude
Rises 22:11:21 0° 331° (NNW) 3,058 7.8 -24.2°
Reaches altitude 10° 22:13:40 10° 330° (NNW) 2,139 6.9 -24.1°
Maximum altitude 22:18:29 76° 245° (WSW) 710 3.6 -23.9°
Enters shadow 22:18:36 75° 229° (SW) 712 3.6 -23.9°
